Regional Weather Roundup
Issued by NWS

Home | Current Version | Previous Version | Graphics & Text | Print | Product List | Glossary Off
Versions: 1 2 3 4 5 6 7 8 9 10 11 12 13 14 15 16 17 18 19 20 21 22 23 24 25 26 27 28 29 30 31 32 33 34 35 36 37 38 39 40 41 42 43 44 45 46 47 48 49 50

831
ASUS43 KTOP 231508
RWRKS

WEATHER ROUNDUP FOR KANSAS
NATIONAL WEATHER SERVICE GOODLAND KS
1000 AM CDT MON OCT 23 2017

NOTE:  "FAIR" INDICATES FEW OR NO CLOUDS BELOW 12,000 FEET WITH NO
SIGNIFICANT WEATHER AND/OR OBSTRUCTIONS TO VISIBILITY.

KSZ001>006-013>018-027>032-041>047-231600-
NORTHWEST KANSAS

CITY           SKY/WX    TMP DP  RH WIND       PRES   REMARKS
GOODLAND       CLOUDY    49  35  58 N14G29    30.32R
HAYS           CLOUDY    59  35  40 N21G28    30.18R
HILL CITY      CLOUDY    57  34  41 N23G38    30.22R
RUSSELL        CLOUDY    59  40  49 N21G29    30.12S
$$

KSZ061>065-074>080-084>089-231600-
SOUTHWEST KANSAS

CITY           SKY/WX    TMP DP  RH WIND       PRES   REMARKS
DODGE CITY     CLOUDY    58  36  43 N20G32    30.21R
ELKHART          N/A     55  33  43 N17         N/A
GARDEN CITY    CLOUDY    57  36  45 N28G38    30.25R
GREAT BEND     CLOUDY    60  39  45 N26G35    30.14R
LIBERAL        CLOUDY    58  37  45 N25G36    30.23R
PRATT          CLOUDY    60  36  40 N23G32    30.14R
$$

KSZ066>073-081>083-090>101-231600-
SOUTHEAST KANSAS

CITY           SKY/WX    TMP DP  RH WIND       PRES   REMARKS
CHANUTE        MOSUNNY   56  43  61 W10       29.99R HAZE
COFFEYVILLE    CLOUDY    56  45  66 SW8       30.01R
HUTCHINSON     MOSUNNY   60  39  45 N21G26    30.09R
MEDICINE LODGE   N/A     61  37  41 N24G41    30.09R
NEWTON         CLOUDY    58  40  51 N20G29    30.07R
PARSONS        CLOUDY    55  45  68 SW7       30.01R
WICHITA INTL   CLOUDY    57  40  52 N20G28    30.06R
WICHITA JABRA  CLOUDY    58  41  53 N21       30.06R
WICHITA MCCONL CLOUDY    56  39  53 N16G24    30.05R
WINFIELD       CLOUDY    54  45  71 NW13      30.06R
$$

KSZ007>012-019>026-033>040-048>060-102>105-231600-
NORTHEAST KANSAS

CITY           SKY/WX    TMP DP  RH WIND       PRES   REMARKS
CONCORDIA      MOSUNNY   62  40  44 NW14G33   30.08R
EMPORIA        PTSUNNY   58  40  51 NW15G21   30.01R
LAWRENCE       PTSUNNY   53  45  74 W8        29.95R
MANHATTAN      CLOUDY    60  41  49 VRB7      30.03R
MARYSVILLE     MOSUNNY   61  41  48 N16G25    30.02R
OLATHE IND     CLOUDY    54  43  66 W12       29.95S
OLATHE EXE     SUNNY     54  41  61 W10       29.94S
SALINA         CLOUDY    60  43  53 NW14      30.10R
TOPEKA BILLARD MOSUNNY   55  44  66 W8        29.98R
TOPEKA FORBES  CLOUDY    56  43  61 NW18      29.97R
$$




USA.gov is the U.S. government's official web portal to all federal, state and local government web resources and services.